Weather History for Delaware, OH

Change the Weather History Date:

Saturday, January 5, 2013

  Actual Average Record
Temperature  
Mean Temperature 22 °F -  
Max Temperature 33 °F 35 °F 61 °F (1939)
Min Temperature 12 °F 17 °F -9 °F (1981)
Degree Days  
Heating Degree Days 42    
Moisture  
Dew Point 20 °F    
Average Humidity 80    
Maximum Humidity 100    
Minimum Humidity 65    
Precipitation  
Precipitation 0.00 in - - ()
Sea Level Pressure  
Sea Level Pressure 30.25 in    
Wind  
Wind Speed 6 mph (SSW)    
Max Wind Speed 13 mph    
Max Gust Speed -    
Visibility 9 miles    
Events      
Averages and records for this station are not official NWS values.
T = Trace of Precipitation, MM = Missing Value Source: NWS Daily Summary

Daily Weather History Graph

Daily Weather History Graph

Search for Another Location

Airport:

Trip Planner

Search our weather history database for the weather conditions in past years. The results will help you decide how hot, cold, wet, or windy it might be!

Date:

Astronomy

Jan. 05, 2013 Rise Set
Actual Time 7:55 AM EST 5:20 PM EST
Civil Twilight 7:24 AM EST 5:51 PM EST
Nautical Twilight 6:51 AM EST 6:25 PM EST
Astronomical Twilight 6:18 AM EST 6:58 PM EST
Moon 1:00 AM EST (1/5) 12:10 PM EST (1/5)
Length of Visible Light 10h 26m
Length of Day
9h 25m
Last Quarter, 44% of the Moon is Illuminated
Jan 5
Last Quarter
Jan 11
New
Jan 18
First Quarter
Jan 26
Full
Feb 3
Last Quarter

Hourly Weather History & Observations

Time (EST) Temp. Windchill Dew Point Humidity Pressure Visibility Wind Dir Wind Speed Gust Speed Precip Events Conditions
12:02 AM 23.0 °F 15.8 °F 14.0 °F 68% 30.29 in 10.0 mi SW 5.8 mph - N/A   Clear
12:22 AM 21.2 °F 13.6 °F 14.0 °F 74% 30.29 in 10.0 mi SW 5.8 mph - N/A   Clear
12:41 AM 21.2 °F 13.6 °F 15.8 °F 80% 30.29 in 10.0 mi WSW 5.8 mph - N/A   Clear
1:02 AM 21.2 °F 14.9 °F 14.0 °F 74% 30.29 in 10.0 mi SW 4.6 mph - N/A   Clear
1:22 AM 21.2 °F 12.6 °F 14.0 °F 74% 30.29 in 10.0 mi WSW 6.9 mph - N/A   Clear
1:41 AM 19.4 °F 11.5 °F 14.0 °F 80% 30.30 in 10.0 mi SW 5.8 mph - N/A   Clear
2:02 AM 19.4 °F 11.5 °F 15.8 °F 86% 30.30 in 10.0 mi WSW 5.8 mph - N/A   Clear
2:22 AM 21.2 °F 14.9 °F 15.8 °F 80% 30.30 in 10.0 mi SW 4.6 mph - N/A   Clear
2:41 AM 19.4 °F 14.3 °F 15.8 °F 86% 30.30 in 10.0 mi SW 3.5 mph - N/A   Clear
3:02 AM 17.6 °F 12.3 °F 14.0 °F 86% 30.30 in 10.0 mi SSW 3.5 mph - N/A   Clear
3:22 AM 17.6 °F 9.3 °F 14.0 °F 86% 30.31 in 10.0 mi SSW 5.8 mph - N/A   Clear
3:41 AM 14.0 °F 6.5 °F 12.2 °F 93% 30.32 in 10.0 mi SSW 4.6 mph - N/A   Clear
4:02 AM 15.8 °F 10.2 °F 14.0 °F 93% 30.31 in 10.0 mi SSW 3.5 mph - N/A   Clear
4:22 AM 15.8 °F 10.2 °F 14.0 °F 93% 30.30 in 7.0 mi South 3.5 mph - N/A   Clear
4:41 AM 12.2 °F - 10.4 °F 92% 30.30 in 7.0 mi Calm Calm - N/A   Clear
5:02 AM 15.8 °F 10.2 °F 14.0 °F 93% 30.31 in 7.0 mi SSW 3.5 mph - N/A   Clear
5:22 AM 17.6 °F 9.3 °F 14.0 °F 86% 30.32 in 10.0 mi SW 5.8 mph - N/A   Clear
5:41 AM 17.6 °F 10.7 °F 14.0 °F 86% 30.31 in 10.0 mi SSW 4.6 mph - N/A   Clear
6:02 AM 17.6 °F - 14.0 °F 86% 30.32 in 7.0 mi Calm Calm - N/A   Clear
6:21 AM 17.6 °F 10.7 °F 15.8 °F 93% 30.32 in 7.0 mi SSW 4.6 mph - N/A   Clear
6:42 AM 15.8 °F 10.2 °F 14.0 °F 93% 30.33 in 7.0 mi South 3.5 mph - N/A   Clear
7:02 AM 14.0 °F - 14.0 °F 100% 30.33 in 4.0 mi Calm Calm - N/A   Clear
7:21 AM 15.8 °F - 14.0 °F 93% 30.33 in 4.0 mi Calm Calm - N/A   Clear
7:42 AM 14.0 °F 5.1 °F 12.2 °F 93% 30.34 in 2.5 mi South 5.8 mph - N/A   Clear
8:02 AM 12.2 °F 6.1 °F 10.4 °F 92% 30.34 in 3.0 mi South 3.5 mph - N/A   Clear
8:21 AM 14.0 °F 8.2 °F 12.2 °F 93% 30.35 in 2.0 mi South 3.5 mph - N/A   Clear
8:42 AM 14.0 °F 5.1 °F 12.2 °F 93% 30.34 in 2.0 mi SSE 5.8 mph - N/A   Clear
9:02 AM 17.6 °F 10.7 °F 14.0 °F 86% 30.33 in 4.0 mi South 4.6 mph - N/A   Clear
9:21 AM 17.6 °F 10.7 °F 14.0 °F 86% 30.32 in 5.0 mi SSE 4.6 mph - N/A   Clear
9:42 AM 17.6 °F 10.7 °F 17.6 °F 100% 30.32 in 5.0 mi South 4.6 mph - N/A   Clear
10:02 AM 19.4 °F - 17.6 °F 93% 30.32 in 7.0 mi Calm Calm - N/A   Clear
10:21 AM 21.2 °F 14.9 °F 19.4 °F 93% 30.33 in 7.0 mi South 4.6 mph - N/A   Clear
11:02 AM 26.6 °F 17.5 °F 21.2 °F 80% 30.33 in 10.0 mi SSW 9.2 mph - N/A   Clear
11:21 AM 28.4 °F 20.4 °F 21.2 °F 74% 30.32 in 10.0 mi SSW 8.1 mph - N/A   Clear
12:02 PM 30.2 °F 21.9 °F 23.0 °F 75% 30.30 in 10.0 mi SSW 9.2 mph - N/A   Clear
12:21 PM 30.2 °F 21.9 °F 23.0 °F 75% 30.29 in 10.0 mi SSW 9.2 mph - N/A   Clear
12:42 PM 30.2 °F 23.4 °F 23.0 °F 75% 30.28 in 10.0 mi SSW 6.9 mph - N/A   Clear
1:02 PM 32.0 °F 25.6 °F 23.0 °F 69% 30.25 in 10.0 mi South 6.9 mph - N/A   Clear
1:21 PM 32.0 °F 25.6 °F 23.0 °F 69% 30.24 in 10.0 mi SSW 6.9 mph - N/A   Clear
1:42 PM 33.8 °F 29.6 °F 24.8 °F 70% 30.24 in 10.0 mi SSW 4.6 mph - N/A   Clear
2:02 PM 33.8 °F 25.8 °F 23.0 °F 65% 30.23 in 10.0 mi SSW 10.4 mph - N/A   Clear
2:21 PM 33.8 °F 27.7 °F 24.8 °F 70% 30.21 in 10.0 mi SSW 6.9 mph - N/A   Clear
2:42 PM 33.8 °F 26.4 °F 23.0 °F 65% 30.20 in 10.0 mi South 9.2 mph - N/A   Clear
3:02 PM 33.8 °F 25.3 °F 23.0 °F 65% 30.20 in 10.0 mi SSW 11.5 mph - N/A   Clear
3:21 PM 33.8 °F 24.8 °F 23.0 °F 65% 30.20 in 10.0 mi SSW 12.7 mph - N/A   Clear
3:42 PM 33.8 °F 27.7 °F 23.0 °F 65% 30.19 in 10.0 mi SSW 6.9 mph - N/A   Clear
4:02 PM 33.8 °F 26.4 °F 24.8 °F 70% 30.19 in 10.0 mi SW 9.2 mph - N/A   Clear
4:21 PM 33.8 °F 27.0 °F 24.8 °F 70% 30.19 in 10.0 mi SSW 8.1 mph - N/A   Mostly Cloudy
4:42 PM 33.8 °F 26.4 °F 26.6 °F 75% 30.18 in 10.0 mi SSW 9.2 mph - N/A   Overcast
5:02 PM 33.8 °F 27.0 °F 26.6 °F 75% 30.19 in 10.0 mi SSW 8.1 mph - N/A   Overcast
5:21 PM 33.8 °F 26.4 °F 26.6 °F 75% 30.18 in 10.0 mi SSW 9.2 mph - N/A   Overcast
6:02 PM 32.0 °F 25.6 °F 26.6 °F 80% 30.18 in 10.0 mi SSW 6.9 mph - N/A   Overcast
6:21 PM 33.8 °F 27.0 °F 26.6 °F 75% 30.20 in 10.0 mi SSW 8.1 mph - N/A   Overcast
6:42 PM 33.8 °F 25.8 °F 26.6 °F 75% 30.19 in 10.0 mi SSW 10.4 mph - N/A   Overcast
7:02 PM 33.8 °F 26.4 °F 26.6 °F 75% 30.18 in 10.0 mi SSW 9.2 mph - N/A   Overcast
7:21 PM 33.8 °F 26.4 °F 26.6 °F 75% 30.17 in 10.0 mi SSW 9.2 mph - N/A   Overcast
7:42 PM 33.8 °F 27.0 °F 26.6 °F 75% 30.17 in 10.0 mi SSW 8.1 mph - N/A   Overcast
8:02 PM 33.8 °F 27.7 °F 26.6 °F 75% 30.16 in 10.0 mi SSW 6.9 mph - N/A   Mostly Cloudy
8:21 PM 33.8 °F 27.0 °F 26.6 °F 75% 30.16 in 10.0 mi SSW 8.1 mph - N/A   Mostly Cloudy
9:02 PM 33.8 °F 27.0 °F 26.6 °F 75% 30.16 in 10.0 mi SSW 8.1 mph - N/A   Overcast
9:21 PM 33.8 °F 27.0 °F 26.6 °F 75% 30.15 in 10.0 mi SSW 8.1 mph - N/A   Overcast
9:42 PM 33.8 °F 26.4 °F 26.6 °F 75% 30.15 in 10.0 mi SSW 9.2 mph - N/A   Overcast
10:02 PM 32.0 °F 25.6 °F 26.6 °F 80% 30.15 in 10.0 mi SSW 6.9 mph - N/A   Overcast
10:21 PM 32.0 °F 26.4 °F 26.6 °F 80% 30.15 in 10.0 mi SSW 5.8 mph - N/A   Overcast
10:42 PM 32.0 °F 26.4 °F 26.6 °F 80% 30.15 in 10.0 mi SW 5.8 mph - N/A   Overcast
11:01 PM 32.0 °F 26.4 °F 26.6 °F 80% 30.15 in 10.0 mi SW 5.8 mph - N/A   Overcast
11:22 PM 32.0 °F 26.4 °F 26.6 °F 80% 30.15 in 10.0 mi SW 5.8 mph - N/A   Overcast
11:42 PM 32.0 °F 25.6 °F 26.6 °F 80% 30.14 in 10.0 mi SW 6.9 mph - N/A   Overcast